| time (UTC) | temp F | wind direction | speed MPH | gust MPH | rain 1hr in | rain 24hr in | rain mn in | humidity % | barometer mb |
| 20260502151549 | 89 | 227 | 6.0 | 13.0 | 0.00 | 0.00 | 0.00 | 47 | 1009.7 |
| 20260502123112 | 74 | 22 | 1.0 | 4.0 | 0.00 | 0.00 | 0.00 | 83 | 1007.4 |
| 20260502121556 | 74 | 277 | 0.0 | 0.0 | 0.00 | 0.00 | 0.00 | 83 | 1007.1 |
| 20260502114546 | 75 | 276 | 0.0 | 2.0 | 0.00 | 0.00 | 0.00 | 86 | 1006.8 |
| 20260502113050 | 75 | 287 | 0.0 | 3.0 | 0.00 | 0.00 | 0.00 | 86 | 1006.7 |
| 20260502111547 | 76 | 281 | 1.0 | 5.0 | 0.00 | 0.00 | 0.00 | 86 | 1006.6 |
| 20260502110039 | 76 | 293 | 0.0 | 5.0 | 0.00 | 0.00 | 0.00 | 85 | 1006.6 |
| 20260502104537 | 76 | 300 | 0.0 | 1.0 | 0.00 | 0.00 | 0.00 | 85 | 1006.4 |
| 20260502103035 | 77 | 304 | 1.0 | 5.0 | 0.00 | 0.00 | 0.00 | 84 | 1006.4 |
| 20260502101539 | 77 | 285 | 1.0 | 7.0 | 0.00 | 0.00 | 0.00 | 84 | 1006.4 |
| 20260502091528 | 77 | 269 | 4.0 | 7.0 | 0.00 | 0.00 | 0.00 | 85 | 1007.0 |
| 20260502071510 | 79 | 271 | 3.0 | 8.0 | 0.00 | 0.00 | 0.00 | 83 | 1008.5 |
| 20260502070015 | 79 | 233 | 2.0 | 9.0 | 0.00 | 0.00 | 0.00 | 83 | 1008.7 |
| 20260502064505 | 79 | 323 | 5.0 | 9.0 | 0.00 | 0.00 | 0.00 | 83 | 1008.8 |
| 20260502063003 | 80 | 267 | 5.0 | 10.0 | 0.00 | 0.00 | 0.00 | 83 | 1008.8 |
| 20260502061501 | 80 | 261 | 4.0 | 9.0 | 0.00 | 0.00 | 0.00 | 84 | 1009.0 |
| 20260502060059 | 80 | 246 | 4.0 | 11.0 | 0.00 | 0.00 | 0.00 | 84 | 1009.1 |
| 20260502054556 | 80 | 258 | 5.0 | 11.0 | 0.00 | 0.00 | 0.00 | 85 | 1009.2 |
| 20260502053058 | 80 | 293 | 4.0 | 10.0 | 0.00 | 0.00 | 0.00 | 85 | 1009.2 |
| 20260502051601 | 81 | 250 | 5.0 | 10.0 | 0.00 | 0.00 | 0.00 | 84 | 1009.2 |
| 20260502050052 | 81 | 296 | 6.0 | 12.0 | 0.00 | 0.00 | 0.00 | 84 | 1009.3 |
| 20260502044520 | 81 | 238 | 3.0 | 10.0 | 0.00 | 0.00 | 0.00 | 83 | 1009.2 |
| 20260502043019 | 81 | 272 | 4.0 | 10.0 | 0.00 | 0.00 | 0.00 | 83 | 1009.0 |
| 20260502041546 | 81 | 242 | 5.0 | 12.0 | 0.00 | 0.00 | 0.00 | 83 | 1008.8 |
| 20260502040044 | 81 | 275 | 6.0 | 12.0 | 0.00 | 0.00 | 0.00 | 83 | 1008.6 |
| 20260502034539 | 81 | 219 | 4.0 | 12.0 | 0.00 | 0.00 | 0.00 | 82 | 1008.3 |
| 20260502033035 | 81 | 286 | 7.0 | 14.0 | 0.00 | 0.00 | 0.00 | 83 | 1008.0 |
| 20260502031533 | 81 | 230 | 5.0 | 15.0 | 0.00 | 0.00 | 0.00 | 82 | 1007.8 |
| 20260502030033 | 82 | 274 | 6.0 | 15.0 | 0.00 | 0.00 | 0.00 | 82 | 1007.5 |
| 20260502024555 | 82 | 289 | 3.0 | 13.0 | 0.00 | 0.00 | 0.00 | 81 | 1007.2 |
| 20260502023053 | 82 | 248 | 7.0 | 15.0 | 0.00 | 0.00 | 0.00 | 81 | 1006.8 |
| 20260502021522 | 82 | 213 | 5.0 | 13.0 | 0.00 | 0.00 | 0.00 | 80 | 1006.5 |
| 20260502020018 | 82 | 230 | 8.0 | 16.0 | 0.00 | 0.00 | 0.00 | 79 | 1006.3 |
| 20260502014512 | 83 | 276 | 6.0 | 14.0 | 0.00 | 0.00 | 0.00 | 78 | 1006.0 |
| 20260502013012 | 83 | 221 | 6.0 | 15.0 | 0.00 | 0.00 | 0.00 | 77 | 1005.6 |
| 20260502011504 | 84 | 252 | 5.0 | 20.0 | 0.00 | 0.00 | 0.00 | 75 | 1005.2 |
| 20260502010101 | 84 | 242 | 8.0 | 21.0 | 0.00 | 0.00 | 0.00 | 72 | 1005.1 |
| 20260502004527 | 85 | 254 | 8.0 | 18.0 | 0.00 | 0.00 | 0.00 | 70 | 1004.8 |
| 20260502003026 | 86 | 215 | 8.0 | 22.0 | 0.00 | 0.00 | 0.00 | 68 | 1004.4 |
| 20260502001523 | 87 | 246 | 7.0 | 20.0 | 0.00 | 0.00 | 0.00 | 66 | 1004.2 |
| 20260502000022 | 88 | 229 | 8.0 | 18.0 | 0.00 | 0.00 | 0.00 | 64 | 1004.0 |
| 20260501234521 | 88 | 271 | 8.0 | 20.0 | 0.00 | 0.00 | 0.00 | 63 | 1003.8 |
| 20260501233020 | 90 | 246 | 8.0 | 16.0 | 0.00 | 0.00 | 0.00 | 61 | 1003.6 |
| 20260501231517 | 90 | 265 | 8.0 | 22.0 | 0.00 | 0.00 | 0.00 | 59 | 1003.5 |
| 20260501230017 | 90 | 208 | 9.0 | 16.0 | 0.00 | 0.00 | 0.00 | 61 | 1003.4 |
| 20260501224515 | 91 | 192 | 10.0 | 19.0 | 0.00 | 0.00 | 0.00 | 62 | 1003.3 |
| 20260501223015 | 91 | 215 | 8.0 | 21.0 | 0.00 | 0.00 | 0.00 | 61 | 1003.4 |
| 20260501221516 | 92 | 218 | 11.0 | 20.0 | 0.00 | 0.00 | 0.00 | 60 | 1003.3 |
| 20260501220014 | 93 | 178 | 12.0 | 20.0 | 0.00 | 0.00 | 0.00 | 57 | 1003.3 |
| 20260501214510 | 93 | 243 | 8.0 | 23.0 | 0.00 | 0.00 | 0.00 | 53 | 1003.2 |
| 20260501213011 | 93 | 217 | 12.0 | 22.0 | 0.00 | 0.00 | 0.00 | 58 | 1003.2 |
| 20260501211508 | 93 | 207 | 10.0 | 21.0 | 0.00 | 0.00 | 0.00 | 58 | 1003.2 |
| 20260501210006 | 94 | 176 | 11.0 | 21.0 | 0.00 | 0.00 | 0.00 | 58 | 1003.2 |
| 20260501204508 | 94 | 172 | 13.0 | 21.0 | 0.00 | 0.00 | 0.00 | 58 | 1003.2 |
| 20260501203001 | 93 | 194 | 10.0 | 24.0 | 0.00 | 0.00 | 0.00 | 58 | 1003.6 |
| 20260501201601 | 94 | 174 | 13.0 | 26.0 | 0.00 | 0.00 | 0.00 | 57 | 1003.6 |
| 20260501200055 | 94 | 192 | 13.0 | 27.0 | 0.00 | 0.00 | 0.00 | 56 | 1003.9 |
| 20260501194617 | 96 | 208 | 8.0 | 20.0 | 0.00 | 0.00 | 0.00 | 54 | 1004.0 |
| 20260501193052 | 95 | 166 | 10.0 | 26.0 | 0.00 | 0.00 | 0.00 | 52 | 1004.2 |
| 20260501191524 | 95 | 195 | 15.0 | 24.0 | 0.00 | 0.00 | 0.00 | 51 | 1004.4 |
| 20260501190030 | 96 | 177 | 12.0 | 24.0 | 0.00 | 0.00 | 0.00 | 50 | 1004.7 |
| 20260501184513 | 96 | 178 | 13.0 | 27.0 | 0.00 | 0.00 | 0.00 | 51 | 1004.9 |
| 20260501183009 | 95 | 203 | 12.0 | 22.0 | 0.00 | 0.00 | 0.00 | 49 | 1005.1 |
| 20260501181518 | 96 | 185 | 13.0 | 23.0 | 0.00 | 0.00 | 0.00 | 46 | 1005.4 |
| 20260501180011 | 96 | 178 | 9.0 | 20.0 | 0.00 | 0.00 | 0.00 | 45 | 1005.6 |
| 20260501174502 | 96 | 178 | 10.0 | 22.0 | 0.00 | 0.00 | 0.00 | 46 | 1005.7 |
| 20260501173114 | 95 | 177 | 12.0 | 25.0 | 0.00 | 0.00 | 0.00 | 45 | 1005.8 |
| 20260501171555 | 95 | 233 | 7.0 | 15.0 | 0.00 | 0.00 | 0.00 | 48 | 1006.0 |
| 20260501170051 | 94 | 279 | 5.0 | 15.0 | 0.00 | 0.00 | 0.00 | 48 | 1006.2 |
| 20260501164550 | 93 | 192 | 8.0 | 19.0 | 0.00 | 0.00 | 0.00 | 49 | 1006.3 |
| 20260501163014 | 92 | 238 | 8.0 | 19.0 | 0.00 | 0.00 | 0.00 | 50 | 1006.5 |
| 20260501161507 | 92 | 246 | 7.0 | 14.0 | 0.00 | 0.00 | 0.00 | 51 | 1006.7 |
| 20260501160001 | 90 | 263 | 7.0 | 14.0 | 0.00 | 0.00 | 0.00 | 53 | 1006.9 |
| 20260501154601 | 89 | 215 | 7.0 | 13.0 | 0.00 | 0.00 | 0.00 | 60 | 1007.0 |
| 20260501153115 | 88 | 245 | 5.0 | 11.0 | 0.00 | 0.00 | 0.00 | 63 | 1007.1 |